Overview Statistics Trail Chart Weather Telemetry Raw packets
 

This is the latest recevied weather packets stored in our database for station/object W4SNA-3. If no packets are shown the sender has not sent any weather packets the latest 10 day(s).

<< 88 89 90 91 92 93 94 >>
Time Temp. Humidity Pressure Rain* Wind** Luminosity Snow
1787942572 23.89° C 74% 1019.1 hPa 0 mm - - -
1787942273 23.89° C 73% 1019.4 hPa 0.25 mm - - -
1787941972 24.44° C 75% 1019.5 hPa 0.25 mm - - -
1787941672 24.44° C 74% 1019.3 hPa 0.25 mm - - -
1787941379 25° C 72% 1019.4 hPa 0.25 mm - - -
1787941072 25° C 71% 1019.2 hPa 0.25 mm - - -
1787940772 25.56° C 71% 1019.3 hPa 0.25 mm - - -
1787940472 25.56° C 69% 1019.3 hPa 0.25 mm - - -
1787940172 26.11° C 70% 1019.3 hPa 0.25 mm - - -
1787939872 26.11° C 67% 1019.3 hPa 0.25 mm - - -
1787939577 26.67° C 68% 1019.3 hPa 0.25 mm - - -
1787939280 26.67° C 67% 1019.2 hPa 0.25 mm - - -
1787938972 26.67° C 67% 1019.3 hPa 0.25 mm - - -
1787938672 26.67° C 67% 1019.4 hPa 0 mm - - -
1787938372 26.67° C 68% 1019.5 hPa 0 mm - - -
1787938073 26.67° C 69% 1019.4 hPa 0 mm - - -
1787937779 26.67° C 67% 1019.6 hPa 0 mm - - -
1787937472 26.67° C 66% 1019.6 hPa 0 mm - - -
1787937173 26.67° C 70% 1019.7 hPa 0 mm - - -
1787936872 26.67° C 72% 1019.8 hPa 0 mm - - -
1787936572 26.67° C 70% 1019.8 hPa 0 mm - - -
1787936271 26.11° C 70% 1019.8 hPa 0 mm - - -
1787935972 26.11° C 72% 1019.8 hPa 0 mm - - -
1787935671 26.11° C 76% 1019.9 hPa 0 mm - - -
1787935373 25.56° C 74% 1019.8 hPa 0 mm - - -

* Rain latest hour (hover to see other rain measurements)
** Current wind speed in m/s (hover to see current wind gust speed)